owner,sensor,date,latitude,longitude,vertical_datum,sea_water_practical_salinity,qcFlag 
ENP,ioos.station.NOAA.NDBC:BWSF1:1,2017-12-01T00:00:00Z,25.1780,-80.4380,1.5,21.79,1111122 
ENP,ioos.station.NOAA.NDBC:BWSF1:1,2017-12-01T01:00:00Z,25.1780,-80.4380,1.5,21.79,1111122 
ENP,ioos.station.NOAA.NDBC:BWSF1:1,2017-12-01T03:00:00Z,25.1780,-80.4380,1.5,21.79,1111122 
ENP,ioos.station.NOAA.NDBC:BWSF1:1,2017-12-01T04:00:00Z,25.1780,-80.4380,1.5,21.79,1111122 
ENP,ioos.station.NOAA.NDBC:BWSF1:1,2017-12-01T06:00:00Z,25.1780,-80.4380,1.5,21.79,1111122 
ENP,ioos.station.NOAA.NDBC:BWSF1:1,2017-12-01T07:00:00Z,25.1780,-80.4380,1.5,21.79,1111122 
ENP,ioos.station.NOAA.NDBC:BWSF1:1,2017-12-01T08:00:00Z,25.1780,-80.4380,1.5,21.79,1111122 
ENP,ioos.station.NOAA.NDBC:BWSF1:1,2017-12-01T09:00:00Z,25.1780,-80.4380,1.5,21.86,1111122 
ENP,ioos.station.NOAA.NDBC:BWSF1:1,2017-12-01T11:00:00Z,25.1780,-80.4380,1.5,22.13,1111122 
ENP,ioos.station.NOAA.NDBC:BWSF1:1,2017-12-01T12:00:00Z,25.1780,-80.4380,1.5,22.27,1111122 
ENP,ioos.station.NOAA.NDBC:BWSF1:1,2017-12-01T13:00:00Z,25.1780,-80.4380,1.5,22.41,1111122 
ENP,ioos.station.NOAA.NDBC:BWSF1:1,2017-12-01T14:00:00Z,25.1780,-80.4380,1.5,22.48,1111122 
ENP,ioos.station.NOAA.NDBC:BWSF1:1,2017-12-01T15:00:00Z,25.1780,-80.4380,1.5,22.55,1111122 
ENP,ioos.station.NOAA.NDBC:BWSF1:1,2017-12-01T16:00:00Z,25.1780,-80.4380,1.5,22.62,1111122 
ENP,ioos.station.NOAA.NDBC:BWSF1:1,2017-12-01T17:00:00Z,25.1780,-80.4380,1.5,22.69,1111122 
ENP,ioos.station.NOAA.NDBC:BWSF1:1,2017-12-01T18:00:00Z,25.1780,-80.4380,1.5,22.76,1111122 
ENP,ioos.station.NOAA.NDBC:BWSF1:1,2017-12-01T19:00:00Z,25.1780,-80.4380,1.5,22.48,1111122 
ENP,ioos.station.NOAA.NDBC:BWSF1:1,2017-12-02T07:00:00Z,25.1780,-80.4380,1.5,21.51,1111122 
ENP,ioos.station.NOAA.NDBC:BWSF1:1,2017-12-02T08:00:00Z,25.1780,-80.4380,1.5,21.51,1111122 
ENP,ioos.station.NOAA.NDBC:BWSF1:1,2017-12-02T09:00:00Z,25.1780,-80.4380,1.5,21.58,1111122 
ENP,ioos.station.NOAA.NDBC:BWSF1:1,2017-12-02T11:00:00Z,25.1780,-80.4380,1.5,21.65,1111122 
ENP,ioos.station.NOAA.NDBC:BWSF1:1,2017-12-02T12:00:00Z,25.1780,-80.4380,1.5,21.65,1111122 
ENP,ioos.station.NOAA.NDBC:BWSF1:1,2017-12-02T13:00:00Z,25.1780,-80.4380,1.5,21.65,1111122 
ENP,ioos.station.NOAA.NDBC:BWSF1:1,2017-12-02T14:00:00Z,25.1780,-80.4380,1.5,22.13,1111122 
ENP,ioos.station.NOAA.NDBC:BWSF1:1,2017-12-02T15:00:00Z,25.1780,-80.4380,1.5,22.41,1111122 
ENP,ioos.station.NOAA.NDBC:BWSF1:1,2017-12-02T16:00:00Z,25.1780,-80.4380,1.5,22.83,1111122 
ENP,ioos.station.NOAA.NDBC:BWSF1:1,2017-12-02T17:00:00Z,25.1780,-80.4380,1.5,22.55,1111122 
ENP,ioos.station.NOAA.NDBC:BWSF1:1,2017-12-02T18:00:00Z,25.1780,-80.4380,1.5,22.2,1111122 
ENP,ioos.station.NOAA.NDBC:BWSF1:1,2017-12-02T19:00:00Z,25.1780,-80.4380,1.5,22.06,1111122 
ENP,ioos.station.NOAA.NDBC:BWSF1:1,2017-12-02T20:00:00Z,25.1780,-80.4380,1.5,22.06,1111122 
ENP,ioos.station.NOAA.NDBC:BWSF1:1,2017-12-02T21:00:00Z,25.1780,-80.4380,1.5,22.13,1111122 
ENP,ioos.station.NOAA.NDBC:BWSF1:1,2017-12-02T23:00:00Z,25.1780,-80.4380,1.5,22.06,1111122 
ENP,ioos.station.NOAA.NDBC:BWSF1:1,2017-12-03T00:00:00Z,25.1780,-80.4380,1.5,21.86,1111122 
ENP,ioos.station.NOAA.NDBC:BWSF1:1,2017-12-03T01:00:00Z,25.1780,-80.4380,1.5,21.58,1111122 
ENP,ioos.station.NOAA.NDBC:BWSF1:1,2017-12-03T03:00:00Z,25.1780,-80.4380,1.5,21.37,1111122 
ENP,ioos.station.NOAA.NDBC:BWSF1:1,2017-12-03T04:00:00Z,25.1780,-80.4380,1.5,21.37,1111122 
ENP,ioos.station.NOAA.NDBC:BWSF1:1,2017-12-03T06:00:00Z,25.1780,-80.4380,1.5,21.44,1111122 
ENP,ioos.station.NOAA.NDBC:BWSF1:1,2017-12-03T07:00:00Z,25.1780,-80.4380,1.5,21.44,1111122 
ENP,ioos.station.NOAA.NDBC:BWSF1:1,2017-12-03T08:00:00Z,25.1780,-80.4380,1.5,21.44,1111122 
ENP,ioos.station.NOAA.NDBC:BWSF1:1,2017-12-03T09:00:00Z,25.1780,-80.4380,1.5,21.44,1111122 
ENP,ioos.station.NOAA.NDBC:BWSF1:1,2017-12-03T12:00:00Z,25.1780,-80.4380,1.5,21.93,1111122 
ENP,ioos.station.NOAA.NDBC:BWSF1:1,2017-12-03T13:00:00Z,25.1780,-80.4380,1.5,22.34,1111122 
ENP,ioos.station.NOAA.NDBC:BWSF1:1,2017-12-03T14:00:00Z,25.1780,-80.4380,1.5,22.62,1111122 
ENP,ioos.station.NOAA.NDBC:BWSF1:1,2017-12-03T15:00:00Z,25.1780,-80.4380,1.5,22.76,1111122 
ENP,ioos.station.NOAA.NDBC:BWSF1:1,2017-12-03T16:00:00Z,25.1780,-80.4380,1.5,22.76,1111122 
ENP,ioos.station.NOAA.NDBC:BWSF1:1,2017-12-03T17:00:00Z,25.1780,-80.4380,1.5,22.69,1111122 
ENP,ioos.station.NOAA.NDBC:BWSF1:1,2017-12-03T18:00:00Z,25.1780,-80.4380,1.5,22.55,1111122 
ENP,ioos.station.NOAA.NDBC:BWSF1:1,2017-12-03T19:00:00Z,25.1780,-80.4380,1.5,22.13,1111122 
ENP,ioos.station.NOAA.NDBC:BWSF1:1,2017-12-03T20:00:00Z,25.1780,-80.4380,1.5,21.86,1111122 
ENP,ioos.station.NOAA.NDBC:BWSF1:1,2017-12-03T21:00:00Z,25.1780,-80.4380,1.5,21.72,1111122 
ENP,ioos.station.NOAA.NDBC:BWSF1:1,2017-12-03T22:00:00Z,25.1780,-80.4380,1.5,21.65,1111122 
ENP,ioos.station.NOAA.NDBC:BWSF1:1,2017-12-04T01:00:00Z,25.1780,-80.4380,1.5,21.58,1111122 
ENP,ioos.station.NOAA.NDBC:BWSF1:1,2017-12-04T03:00:00Z,25.1780,-80.4380,1.5,21.58,1111122 
ENP,ioos.station.NOAA.NDBC:BWSF1:1,2017-12-04T04:00:00Z,25.1780,-80.4380,1.5,21.65,1111122 
ENP,ioos.station.NOAA.NDBC:BWSF1:1,2017-12-04T06:00:00Z,25.1780,-80.4380,1.5,21.65,1111122 
ENP,ioos.station.NOAA.NDBC:BWSF1:1,2017-12-04T07:00:00Z,25.1780,-80.4380,1.5,21.65,1111122 
ENP,ioos.station.NOAA.NDBC:BWSF1:1,2017-12-04T08:00:00Z,25.1780,-80.4380,1.5,21.72,1111122 
ENP,ioos.station.NOAA.NDBC:BWSF1:1,2017-12-04T09:00:00Z,25.1780,-80.4380,1.5,21.58,1111122 
ENP,ioos.station.NOAA.NDBC:BWSF1:1,2017-12-04T11:00:00Z,25.1780,-80.4380,1.5,21.65,1111122 
ENP,ioos.station.NOAA.NDBC:BWSF1:1,2017-12-04T12:00:00Z,25.1780,-80.4380,1.5,21.72,1111122 
ENP,ioos.station.NOAA.NDBC:BWSF1:1,2017-12-04T13:00:00Z,25.1780,-80.4380,1.5,21.72,1111122 
ENP,ioos.station.NOAA.NDBC:BWSF1:1,2017-12-04T14:00:00Z,25.1780,-80.4380,1.5,21.72,1111122 
ENP,ioos.station.NOAA.NDBC:BWSF1:1,2017-12-04T15:00:00Z,25.1780,-80.4380,1.5,21.72,1111122 
ENP,ioos.station.NOAA.NDBC:BWSF1:1,2017-12-04T16:00:00Z,25.1780,-80.4380,1.5,21.72,1111122 
ENP,ioos.station.NOAA.NDBC:BWSF1:1,2017-12-04T17:00:00Z,25.1780,-80.4380,1.5,21.72,1111122 
ENP,ioos.station.NOAA.NDBC:BWSF1:1,2017-12-04T18:00:00Z,25.1780,-80.4380,1.5,22.27,1111122 
ENP,ioos.station.NOAA.NDBC:BWSF1:1,2017-12-04T19:00:00Z,25.1780,-80.4380,1.5,22.48,1111122 
ENP,ioos.station.NOAA.NDBC:BWSF1:1,2017-12-04T20:00:00Z,25.1780,-80.4380,1.5,22.69,1111122 
ENP,ioos.station.NOAA.NDBC:BWSF1:1,2017-12-04T21:00:00Z,25.1780,-80.4380,1.5,22.76,1111122 
ENP,ioos.station.NOAA.NDBC:BWSF1:1,2017-12-04T22:00:00Z,25.1780,-80.4380,1.5,22.55,1111122 
ENP,ioos.station.NOAA.NDBC:BWSF1:1,2017-12-04T23:00:00Z,25.1780,-80.4380,1.5,22.48,1111122 
ENP,ioos.station.NOAA.NDBC:BWSF1:1,2017-12-05T12:00:00Z,25.1780,-80.4380,1.5,21.65,1111122 
ENP,ioos.station.NOAA.NDBC:BWSF1:1,2017-12-05T13:00:00Z,25.1780,-80.4380,1.5,21.79,1111122 
ENP,ioos.station.NOAA.NDBC:BWSF1:1,2017-12-05T14:00:00Z,25.1780,-80.4380,1.5,21.72,1111122 
ENP,ioos.station.NOAA.NDBC:BWSF1:1,2017-12-05T15:00:00Z,25.1780,-80.4380,1.5,21.65,1111122 
ENP,ioos.station.NOAA.NDBC:BWSF1:1,2017-12-05T16:00:00Z,25.1780,-80.4380,1.5,21.65,1111122 
ENP,ioos.station.NOAA.NDBC:BWSF1:1,2017-12-05T17:00:00Z,25.1780,-80.4380,1.5,21.65,1111122 
ENP,ioos.station.NOAA.NDBC:BWSF1:1,2017-12-05T18:00:00Z,25.1780,-80.4380,1.5,21.65,1111122 
ENP,ioos.station.NOAA.NDBC:BWSF1:1,2017-12-05T19:00:00Z,25.1780,-80.4380,1.5,21.86,1111122 
ENP,ioos.station.NOAA.NDBC:BWSF1:1,2017-12-05T20:00:00Z,25.1780,-80.4380,1.5,22.41,1111122 
ENP,ioos.station.NOAA.NDBC:BWSF1:1,2017-12-05T21:00:00Z,25.1780,-80.4380,1.5,22.69,1111122 
ENP,ioos.station.NOAA.NDBC:BWSF1:1,2017-12-05T22:00:00Z,25.1780,-80.4380,1.5,22.69,1111122 
ENP,ioos.station.NOAA.NDBC:BWSF1:1,2017-12-05T23:00:00Z,25.1780,-80.4380,1.5,22.55,1111122 
ENP,ioos.station.NOAA.NDBC:BWSF1:1,2017-12-06T00:00:00Z,25.1780,-80.4380,1.5,22.48,1111122 
ENP,ioos.station.NOAA.NDBC:BWSF1:1,2017-12-06T01:00:00Z,25.1780,-80.4380,1.5,22.55,1111122 
ENP,ioos.station.NOAA.NDBC:BWSF1:1,2017-12-06T03:00:00Z,25.1780,-80.4380,1.5,22.41,1111122 
ENP,ioos.station.NOAA.NDBC:BWSF1:1,2017-12-06T04:00:00Z,25.1780,-80.4380,1.5,22.34,1111122 
ENP,ioos.station.NOAA.NDBC:BWSF1:1,2017-12-06T06:00:00Z,25.1780,-80.4380,1.5,21.37,1111122 
ENP,ioos.station.NOAA.NDBC:BWSF1:1,2017-12-06T07:00:00Z,25.1780,-80.4380,1.5,21.16,1111122 
ENP,ioos.station.NOAA.NDBC:BWSF1:1,2017-12-06T08:00:00Z,25.1780,-80.4380,1.5,21.23,1111122 
ENP,ioos.station.NOAA.NDBC:BWSF1:1,2017-12-06T09:00:00Z,25.1780,-80.4380,1.5,21.3,1111122 
ENP,ioos.station.NOAA.NDBC:BWSF1:1,2017-12-06T12:00:00Z,25.1780,-80.4380,1.5,21.72,1111122 
ENP,ioos.station.NOAA.NDBC:BWSF1:1,2017-12-06T13:00:00Z,25.1780,-80.4380,1.5,21.93,1111122 
ENP,ioos.station.NOAA.NDBC:BWSF1:1,2017-12-06T14:00:00Z,25.1780,-80.4380,1.5,22.06,1111122 
ENP,ioos.station.NOAA.NDBC:BWSF1:1,2017-12-06T15:00:00Z,25.1780,-80.4380,1.5,22.06,1111122 
ENP,ioos.station.NOAA.NDBC:BWSF1:1,2017-12-06T16:00:00Z,25.1780,-80.4380,1.5,21.99,1111122 
ENP,ioos.station.NOAA.NDBC:BWSF1:1,2017-12-06T17:00:00Z,25.1780,-80.4380,1.5,22.06,1111122 
ENP,ioos.station.NOAA.NDBC:BWSF1:1,2017-12-06T18:00:00Z,25.1780,-80.4380,1.5,22.13,1111122 
ENP,ioos.station.NOAA.NDBC:BWSF1:1,2017-12-06T19:00:00Z,25.1780,-80.4380,1.5,22.2,1111122 
ENP,ioos.station.NOAA.NDBC:BWSF1:1,2017-12-06T20:00:00Z,25.1780,-80.4380,1.5,22.13,1111122 
ENP,ioos.station.NOAA.NDBC:BWSF1:1,2017-12-06T21:00:00Z,25.1780,-80.4380,1.5,22.13,1111122 
ENP,ioos.station.NOAA.NDBC:BWSF1:1,2017-12-06T22:00:00Z,25.1780,-80.4380,1.5,22.13,1111122 
ENP,ioos.station.NOAA.NDBC:BWSF1:1,2017-12-06T23:00:00Z,25.1780,-80.4380,1.5,22.13,1111122 
ENP,ioos.station.NOAA.NDBC:BWSF1:1,2017-12-07T00:00:00Z,25.1780,-80.4380,1.5,22.13,1111122 
ENP,ioos.station.NOAA.NDBC:BWSF1:1,2017-12-07T01:00:00Z,25.1780,-80.4380,1.5,22.13,1111122 
ENP,ioos.station.NOAA.NDBC:BWSF1:1,2017-12-07T03:00:00Z,25.1780,-80.4380,1.5,22.13,1111122 
ENP,ioos.station.NOAA.NDBC:BWSF1:1,2017-12-07T04:00:00Z,25.1780,-80.4380,1.5,22.13,1111122 
ENP,ioos.station.NOAA.NDBC:BWSF1:1,2017-12-07T06:00:00Z,25.1780,-80.4380,1.5,22.13,1111122 
ENP,ioos.station.NOAA.NDBC:BWSF1:1,2017-12-07T07:00:00Z,25.1780,-80.4380,1.5,22.13,1111122 
ENP,ioos.station.NOAA.NDBC:BWSF1:1,2017-12-07T08:00:00Z,25.1780,-80.4380,1.5,22.13,1111122 
ENP,ioos.station.NOAA.NDBC:BWSF1:1,2017-12-07T09:00:00Z,25.1780,-80.4380,1.5,22.13,1111122 
ENP,ioos.station.NOAA.NDBC:BWSF1:1,2017-12-07T12:00:00Z,25.1780,-80.4380,1.5,22.13,1111122 
ENP,ioos.station.NOAA.NDBC:BWSF1:1,2017-12-07T13:00:00Z,25.1780,-80.4380,1.5,21.99,1111122 
ENP,ioos.station.NOAA.NDBC:BWSF1:1,2017-12-07T14:00:00Z,25.1780,-80.4380,1.5,21.93,1111122 
ENP,ioos.station.NOAA.NDBC:BWSF1:1,2017-12-07T15:00:00Z,25.1780,-80.4380,1.5,21.99,1111122 
ENP,ioos.station.NOAA.NDBC:BWSF1:1,2017-12-07T16:00:00Z,25.1780,-80.4380,1.5,22.06,1111122 
ENP,ioos.station.NOAA.NDBC:BWSF1:1,2017-12-07T17:00:00Z,25.1780,-80.4380,1.5,21.51,1111122 
ENP,ioos.station.NOAA.NDBC:BWSF1:1,2017-12-07T18:00:00Z,25.1780,-80.4380,1.5,21.44,1111122 
ENP,ioos.station.NOAA.NDBC:BWSF1:1,2017-12-07T19:00:00Z,25.1780,-80.4380,1.5,21.44,1111122 
ENP,ioos.station.NOAA.NDBC:BWSF1:1,2017-12-07T22:00:00Z,25.1780,-80.4380,1.5,21.37,1111122 
ENP,ioos.station.NOAA.NDBC:BWSF1:1,2017-12-07T23:00:00Z,25.1780,-80.4380,1.5,21.44,1111122 
ENP,ioos.station.NOAA.NDBC:BWSF1:1,2017-12-08T00:00:00Z,25.1780,-80.4380,1.5,21.65,1111122 
ENP,ioos.station.NOAA.NDBC:BWSF1:1,2017-12-08T01:00:00Z,25.1780,-80.4380,1.5,21.79,1111122 
ENP,ioos.station.NOAA.NDBC:BWSF1:1,2017-12-08T03:00:00Z,25.1780,-80.4380,1.5,21.86,1111122 
ENP,ioos.station.NOAA.NDBC:BWSF1:1,2017-12-08T04:00:00Z,25.1780,-80.4380,1.5,21.93,1111122 
ENP,ioos.station.NOAA.NDBC:BWSF1:1,2017-12-08T06:00:00Z,25.1780,-80.4380,1.5,21.99,1111122 
ENP,ioos.station.NOAA.NDBC:BWSF1:1,2017-12-08T07:00:00Z,25.1780,-80.4380,1.5,21.99,1111122 
ENP,ioos.station.NOAA.NDBC:BWSF1:1,2017-12-08T08:00:00Z,25.1780,-80.4380,1.5,21.93,1111122 
ENP,ioos.station.NOAA.NDBC:BWSF1:1,2017-12-08T09:00:00Z,25.1780,-80.4380,1.5,21.99,1111122 
ENP,ioos.station.NOAA.NDBC:BWSF1:1,2017-12-08T11:00:00Z,25.1780,-80.4380,1.5,21.99,1111122 
ENP,ioos.station.NOAA.NDBC:BWSF1:1,2017-12-08T12:00:00Z,25.1780,-80.4380,1.5,21.93,1111122 
ENP,ioos.station.NOAA.NDBC:BWSF1:1,2017-12-08T13:00:00Z,25.1780,-80.4380,1.5,21.79,1111122 
ENP,ioos.station.NOAA.NDBC:BWSF1:1,2017-12-08T14:00:00Z,25.1780,-80.4380,1.5,21.72,1111122 
ENP,ioos.station.NOAA.NDBC:BWSF1:1,2017-12-08T16:00:00Z,25.1780,-80.4380,1.5,21.72,1111122 
ENP,ioos.station.NOAA.NDBC:BWSF1:1,2017-12-08T17:00:00Z,25.1780,-80.4380,1.5,21.72,1111122 
ENP,ioos.station.NOAA.NDBC:BWSF1:1,2017-12-08T18:00:00Z,25.1780,-80.4380,1.5,21.65,1111122 
ENP,ioos.station.NOAA.NDBC:BWSF1:1,2017-12-08T19:00:00Z,25.1780,-80.4380,1.5,21.65,1111122 
ENP,ioos.station.NOAA.NDBC:BWSF1:1,2017-12-08T20:00:00Z,25.1780,-80.4380,1.5,21.65,1111122 
ENP,ioos.station.NOAA.NDBC:BWSF1:1,2017-12-08T21:00:00Z,25.1780,-80.4380,1.5,21.65,1111122 
ENP,ioos.station.NOAA.NDBC:BWSF1:1,2017-12-08T22:00:00Z,25.1780,-80.4380,1.5,21.65,1111122 
ENP,ioos.station.NOAA.NDBC:BWSF1:1,2017-12-08T23:00:00Z,25.1780,-80.4380,1.5,21.65,1111122 
ENP,ioos.station.NOAA.NDBC:BWSF1:1,2017-12-09T00:00:00Z,25.1780,-80.4380,1.5,21.93,1111122 
ENP,ioos.station.NOAA.NDBC:BWSF1:1,2017-12-09T01:00:00Z,25.1780,-80.4380,1.5,22.2,1111122 
ENP,ioos.station.NOAA.NDBC:BWSF1:1,2017-12-09T03:00:00Z,25.1780,-80.4380,1.5,22.34,1111122 
ENP,ioos.station.NOAA.NDBC:BWSF1:1,2017-12-09T04:00:00Z,25.1780,-80.4380,1.5,22.41,1111122 
ENP,ioos.station.NOAA.NDBC:BWSF1:1,2017-12-09T06:00:00Z,25.1780,-80.4380,1.5,22.2,1111122 
ENP,ioos.station.NOAA.NDBC:BWSF1:1,2017-12-09T07:00:00Z,25.1780,-80.4380,1.5,22.27,1111122 
ENP,ioos.station.NOAA.NDBC:BWSF1:1,2017-12-09T08:00:00Z,25.1780,-80.4380,1.5,22.34,1111122 
ENP,ioos.station.NOAA.NDBC:BWSF1:1,2017-12-09T09:00:00Z,25.1780,-80.4380,1.5,22.41,1111122 
ENP,ioos.station.NOAA.NDBC:BWSF1:1,2017-12-09T11:00:00Z,25.1780,-80.4380,1.5,22.62,1111122 
ENP,ioos.station.NOAA.NDBC:BWSF1:1,2017-12-09T12:00:00Z,25.1780,-80.4380,1.5,22.83,1111122 
ENP,ioos.station.NOAA.NDBC:BWSF1:1,2017-12-09T13:00:00Z,25.1780,-80.4380,1.5,22.97,1111122 
ENP,ioos.station.NOAA.NDBC:BWSF1:1,2017-12-09T14:00:00Z,25.1780,-80.4380,1.5,23.25,1111122 
ENP,ioos.station.NOAA.NDBC:BWSF1:1,2017-12-09T15:00:00Z,25.1780,-80.4380,1.5,23.25,1111122 
ENP,ioos.station.NOAA.NDBC:BWSF1:1,2017-12-09T16:00:00Z,25.1780,-80.4380,1.5,22.83,1111122 
ENP,ioos.station.NOAA.NDBC:BWSF1:1,2017-12-09T17:00:00Z,25.1780,-80.4380,1.5,22.62,1111122 
ENP,ioos.station.NOAA.NDBC:BWSF1:1,2017-12-09T18:00:00Z,25.1780,-80.4380,1.5,22.55,1111122 
ENP,ioos.station.NOAA.NDBC:BWSF1:1,2017-12-09T19:00:00Z,25.1780,-80.4380,1.5,22.55,1111122 
ENP,ioos.station.NOAA.NDBC:BWSF1:1,2017-12-09T20:00:00Z,25.1780,-80.4380,1.5,22.48,1111122 
ENP,ioos.station.NOAA.NDBC:BWSF1:1,2017-12-09T21:00:00Z,25.1780,-80.4380,1.5,22.41,1111122 
ENP,ioos.station.NOAA.NDBC:BWSF1:1,2017-12-09T22:00:00Z,25.1780,-80.4380,1.5,22.34,1111122 
ENP,ioos.station.NOAA.NDBC:BWSF1:1,2017-12-09T23:00:00Z,25.1780,-80.4380,1.5,22.27,1111122 
ENP,ioos.station.NOAA.NDBC:BWSF1:1,2017-12-10T00:00:00Z,25.1780,-80.4380,1.5,22.34,1111122 
ENP,ioos.station.NOAA.NDBC:BWSF1:1,2017-12-10T01:00:00Z,25.1780,-80.4380,1.5,22.27,1111122 
ENP,ioos.station.NOAA.NDBC:BWSF1:1,2017-12-10T04:00:00Z,25.1780,-80.4380,1.5,22.34,1111122 
ENP,ioos.station.NOAA.NDBC:BWSF1:1,2017-12-10T06:00:00Z,25.1780,-80.4380,1.5,22.34,1111122 
ENP,ioos.station.NOAA.NDBC:BWSF1:1,2017-12-10T07:00:00Z,25.1780,-80.4380,1.5,22.34,1111122 
ENP,ioos.station.NOAA.NDBC:BWSF1:1,2017-12-10T08:00:00Z,25.1780,-80.4380,1.5,22.41,1111122 
ENP,ioos.station.NOAA.NDBC:BWSF1:1,2017-12-10T09:00:00Z,25.1780,-80.4380,1.5,22.41,1111122 
ENP,ioos.station.NOAA.NDBC:BWSF1:1,2017-12-10T12:00:00Z,25.1780,-80.4380,1.5,22.41,1111122 
ENP,ioos.station.NOAA.NDBC:BWSF1:1,2017-12-10T13:00:00Z,25.1780,-80.4380,1.5,22.41,1111122 
ENP,ioos.station.NOAA.NDBC:BWSF1:1,2017-12-10T14:00:00Z,25.1780,-80.4380,1.5,22.41,1111122 
ENP,ioos.station.NOAA.NDBC:BWSF1:1,2017-12-10T15:00:00Z,25.1780,-80.4380,1.5,22.41,1111122 
ENP,ioos.station.NOAA.NDBC:BWSF1:1,2017-12-10T16:00:00Z,25.1780,-80.4380,1.5,22.41,1111122 
ENP,ioos.station.NOAA.NDBC:BWSF1:1,2017-12-10T17:00:00Z,25.1780,-80.4380,1.5,22.48,1111122 
ENP,ioos.station.NOAA.NDBC:BWSF1:1,2017-12-10T18:00:00Z,25.1780,-80.4380,1.5,22.48,1111122 
ENP,ioos.station.NOAA.NDBC:BWSF1:1,2017-12-10T19:00:00Z,25.1780,-80.4380,1.5,22.41,1111122 
ENP,ioos.station.NOAA.NDBC:BWSF1:1,2017-12-10T20:00:00Z,25.1780,-80.4380,1.5,22.48,1111122 
ENP,ioos.station.NOAA.NDBC:BWSF1:1,2017-12-10T21:00:00Z,25.1780,-80.4380,1.5,22.48,1111122 
ENP,ioos.station.NOAA.NDBC:BWSF1:1,2017-12-10T22:00:00Z,25.1780,-80.4380,1.5,22.48,1111122 
ENP,ioos.station.NOAA.NDBC:BWSF1:1,2017-12-10T23:00:00Z,25.1780,-80.4380,1.5,22.55,1111122 
ENP,ioos.station.NOAA.NDBC:BWSF1:1,2017-12-11T00:00:00Z,25.1780,-80.4380,1.5,22.55,1111122 
ENP,ioos.station.NOAA.NDBC:BWSF1:1,2017-12-11T01:00:00Z,25.1780,-80.4380,1.5,22.55,1111122 
ENP,ioos.station.NOAA.NDBC:BWSF1:1,2017-12-11T03:00:00Z,25.1780,-80.4380,1.5,22.55,1111122 
ENP,ioos.station.NOAA.NDBC:BWSF1:1,2017-12-11T04:00:00Z,25.1780,-80.4380,1.5,22.62,1111122 
ENP,ioos.station.NOAA.NDBC:BWSF1:1,2017-12-11T06:00:00Z,25.1780,-80.4380,1.5,22.62,1111122 
ENP,ioos.station.NOAA.NDBC:BWSF1:1,2017-12-11T07:00:00Z,25.1780,-80.4380,1.5,22.62,1111122 
ENP,ioos.station.NOAA.NDBC:BWSF1:1,2017-12-11T08:00:00Z,25.1780,-80.4380,1.5,22.62,1111122 
ENP,ioos.station.NOAA.NDBC:BWSF1:1,2017-12-11T09:00:00Z,25.1780,-80.4380,1.5,22.69,1111122 
ENP,ioos.station.NOAA.NDBC:BWSF1:1,2017-12-11T11:00:00Z,25.1780,-80.4380,1.5,22.62,1111122 
ENP,ioos.station.NOAA.NDBC:BWSF1:1,2017-12-11T12:00:00Z,25.1780,-80.4380,1.5,22.55,1111122 
ENP,ioos.station.NOAA.NDBC:BWSF1:1,2017-12-11T13:00:00Z,25.1780,-80.4380,1.5,22.55,1111122 
ENP,ioos.station.NOAA.NDBC:BWSF1:1,2017-12-11T14:00:00Z,25.1780,-80.4380,1.5,22.48,1111122 
ENP,ioos.station.NOAA.NDBC:BWSF1:1,2017-12-11T15:00:00Z,25.1780,-80.4380,1.5,22.48,1111122 
ENP,ioos.station.NOAA.NDBC:BWSF1:1,2017-12-11T16:00:00Z,25.1780,-80.4380,1.5,22.48,1111122 
ENP,ioos.station.NOAA.NDBC:BWSF1:1,2017-12-11T17:00:00Z,25.1780,-80.4380,1.5,22.48,1111122 
ENP,ioos.station.NOAA.NDBC:BWSF1:1,2017-12-11T18:00:00Z,25.1780,-80.4380,1.5,22.48,1111122 
ENP,ioos.station.NOAA.NDBC:BWSF1:1,2017-12-11T19:00:00Z,25.1780,-80.4380,1.5,22.48,1111122 
ENP,ioos.station.NOAA.NDBC:BWSF1:1,2017-12-11T20:00:00Z,25.1780,-80.4380,1.5,22.48,1111122 
ENP,ioos.station.NOAA.NDBC:BWSF1:1,2017-12-11T21:00:00Z,25.1780,-80.4380,1.5,22.55,1111122 
ENP,ioos.station.NOAA.NDBC:BWSF1:1,2017-12-11T22:00:00Z,25.1780,-80.4380,1.5,22.55,1111122 
ENP,ioos.station.NOAA.NDBC:BWSF1:1,2017-12-11T23:00:00Z,25.1780,-80.4380,1.5,22.55,1111122 
ENP,ioos.station.NOAA.NDBC:BWSF1:1,2017-12-12T00:00:00Z,25.1780,-80.4380,1.5,22.55,1111122 
ENP,ioos.station.NOAA.NDBC:BWSF1:1,2017-12-12T01:00:00Z,25.1780,-80.4380,1.5,22.55,1111122 
ENP,ioos.station.NOAA.NDBC:BWSF1:1,2017-12-12T04:00:00Z,25.1780,-80.4380,1.5,22.55,1111122 
ENP,ioos.station.NOAA.NDBC:BWSF1:1,2017-12-12T06:00:00Z,25.1780,-80.4380,1.5,22.55,1111122 
ENP,ioos.station.NOAA.NDBC:BWSF1:1,2017-12-12T07:00:00Z,25.1780,-80.4380,1.5,22.62,1111122 
ENP,ioos.station.NOAA.NDBC:BWSF1:1,2017-12-12T08:00:00Z,25.1780,-80.4380,1.5,22.62,1111122 
ENP,ioos.station.NOAA.NDBC:BWSF1:1,2017-12-12T09:00:00Z,25.1780,-80.4380,1.5,22.62,1111122 
ENP,ioos.station.NOAA.NDBC:BWSF1:1,2017-12-12T12:00:00Z,25.1780,-80.4380,1.5,22.69,1111122 
ENP,ioos.station.NOAA.NDBC:BWSF1:1,2017-12-12T13:00:00Z,25.1780,-80.4380,1.5,22.69,1111122 
ENP,ioos.station.NOAA.NDBC:BWSF1:1,2017-12-12T14:00:00Z,25.1780,-80.4380,1.5,22.69,1111122 
ENP,ioos.station.NOAA.NDBC:BWSF1:1,2017-12-12T15:00:00Z,25.1780,-80.4380,1.5,22.69,1111122 
ENP,ioos.station.NOAA.NDBC:BWSF1:1,2017-12-12T17:00:00Z,25.1780,-80.4380,1.5,22.76,1111122 
ENP,ioos.station.NOAA.NDBC:BWSF1:1,2017-12-12T18:00:00Z,25.1780,-80.4380,1.5,22.76,1111122 
ENP,ioos.station.NOAA.NDBC:BWSF1:1,2017-12-12T19:00:00Z,25.1780,-80.4380,1.5,22.83,1111122 
ENP,ioos.station.NOAA.NDBC:BWSF1:1,2017-12-12T20:00:00Z,25.1780,-80.4380,1.5,22.76,1111122 
ENP,ioos.station.NOAA.NDBC:BWSF1:1,2017-12-12T21:00:00Z,25.1780,-80.4380,1.5,22.83,1111122 
ENP,ioos.station.NOAA.NDBC:BWSF1:1,2017-12-13T08:00:00Z,25.1780,-80.4380,1.5,22.97,1111122 
ENP,ioos.station.NOAA.NDBC:BWSF1:1,2017-12-13T09:00:00Z,25.1780,-80.4380,1.5,23.11,1111122 
ENP,ioos.station.NOAA.NDBC:BWSF1:1,2017-12-13T11:00:00Z,25.1780,-80.4380,1.5,24.16,1111122 
ENP,ioos.station.NOAA.NDBC:BWSF1:1,2017-12-13T12:00:00Z,25.1780,-80.4380,1.5,24.44,1111122 
ENP,ioos.station.NOAA.NDBC:BWSF1:1,2017-12-13T13:00:00Z,25.1780,-80.4380,1.5,24.65,1111122 
ENP,ioos.station.NOAA.NDBC:BWSF1:1,2017-12-13T16:00:00Z,25.1780,-80.4380,1.5,24.72,1111122 
ENP,ioos.station.NOAA.NDBC:BWSF1:1,2017-12-13T17:00:00Z,25.1780,-80.4380,1.5,24.72,1111122 
ENP,ioos.station.NOAA.NDBC:BWSF1:1,2017-12-13T18:00:00Z,25.1780,-80.4380,1.5,24.72,1111122 
ENP,ioos.station.NOAA.NDBC:BWSF1:1,2017-12-13T19:00:00Z,25.1780,-80.4380,1.5,24.44,1111122 
ENP,ioos.station.NOAA.NDBC:BWSF1:1,2017-12-13T20:00:00Z,25.1780,-80.4380,1.5,24.02,1111122 
ENP,ioos.station.NOAA.NDBC:BWSF1:1,2017-12-13T21:00:00Z,25.1780,-80.4380,1.5,23.74,1111122 
ENP,ioos.station.NOAA.NDBC:BWSF1:1,2017-12-14T09:00:00Z,25.1780,-80.4380,1.5,23.81,1111122 
ENP,ioos.station.NOAA.NDBC:BWSF1:1,2017-12-14T11:00:00Z,25.1780,-80.4380,1.5,23.67,1111122 
ENP,ioos.station.NOAA.NDBC:BWSF1:1,2017-12-14T12:00:00Z,25.1780,-80.4380,1.5,23.74,1111122 
ENP,ioos.station.NOAA.NDBC:BWSF1:1,2017-12-14T13:00:00Z,25.1780,-80.4380,1.5,23.74,1111122 
ENP,ioos.station.NOAA.NDBC:BWSF1:1,2017-12-14T14:00:00Z,25.1780,-80.4380,1.5,23.81,1111122 
ENP,ioos.station.NOAA.NDBC:BWSF1:1,2017-12-14T15:00:00Z,25.1780,-80.4380,1.5,23.95,1111122 
ENP,ioos.station.NOAA.NDBC:BWSF1:1,2017-12-14T16:00:00Z,25.1780,-80.4380,1.5,24.02,1111122 
ENP,ioos.station.NOAA.NDBC:BWSF1:1,2017-12-14T17:00:00Z,25.1780,-80.4380,1.5,24.09,1111122 
ENP,ioos.station.NOAA.NDBC:BWSF1:1,2017-12-14T18:00:00Z,25.1780,-80.4380,1.5,24.09,1111122 
ENP,ioos.station.NOAA.NDBC:BWSF1:1,2017-12-14T19:00:00Z,25.1780,-80.4380,1.5,23.95,1111122 
ENP,ioos.station.NOAA.NDBC:BWSF1:1,2017-12-14T22:00:00Z,25.1780,-80.4380,1.5,23.81,1111122 
ENP,ioos.station.NOAA.NDBC:BWSF1:1,2017-12-14T23:00:00Z,25.1780,-80.4380,1.5,23.53,1111122 
ENP,ioos.station.NOAA.NDBC:BWSF1:1,2017-12-15T00:00:00Z,25.1780,-80.4380,1.5,23.46,1111122 
ENP,ioos.station.NOAA.NDBC:BWSF1:1,2017-12-15T01:00:00Z,25.1780,-80.4380,1.5,23.46,1111122 
ENP,ioos.station.NOAA.NDBC:BWSF1:1,2017-12-15T04:00:00Z,25.1780,-80.4380,1.5,23.53,1111122 
ENP,ioos.station.NOAA.NDBC:BWSF1:1,2017-12-15T07:00:00Z,25.1780,-80.4380,1.5,23.74,1111122 
ENP,ioos.station.NOAA.NDBC:BWSF1:1,2017-12-15T08:00:00Z,25.1780,-80.4380,1.5,23.74,1111122 
ENP,ioos.station.NOAA.NDBC:BWSF1:1,2017-12-15T09:00:00Z,25.1780,-80.4380,1.5,23.81,1111122 
ENP,ioos.station.NOAA.NDBC:BWSF1:1,2017-12-15T11:00:00Z,25.1780,-80.4380,1.5,23.81,1111122 
ENP,ioos.station.NOAA.NDBC:BWSF1:1,2017-12-15T12:00:00Z,25.1780,-80.4380,1.5,23.88,1111122 
ENP,ioos.station.NOAA.NDBC:BWSF1:1,2017-12-15T13:00:00Z,25.1780,-80.4380,1.5,23.88,1111122 
ENP,ioos.station.NOAA.NDBC:BWSF1:1,2017-12-15T14:00:00Z,25.1780,-80.4380,1.5,23.95,1111122 
ENP,ioos.station.NOAA.NDBC:BWSF1:1,2017-12-15T15:00:00Z,25.1780,-80.4380,1.5,23.88,1111122 
ENP,ioos.station.NOAA.NDBC:BWSF1:1,2017-12-15T16:00:00Z,25.1780,-80.4380,1.5,23.95,1111122 
ENP,ioos.station.NOAA.NDBC:BWSF1:1,2017-12-15T17:00:00Z,25.1780,-80.4380,1.5,23.95,1111122 
ENP,ioos.station.NOAA.NDBC:BWSF1:1,2017-12-15T18:00:00Z,25.1780,-80.4380,1.5,23.88,1111122 
ENP,ioos.station.NOAA.NDBC:BWSF1:1,2017-12-15T19:00:00Z,25.1780,-80.4380,1.5,23.88,1111122 
ENP,ioos.station.NOAA.NDBC:BWSF1:1,2017-12-15T20:00:00Z,25.1780,-80.4380,1.5,23.88,1111122 
ENP,ioos.station.NOAA.NDBC:BWSF1:1,2017-12-15T21:00:00Z,25.1780,-80.4380,1.5,23.81,1111122 
ENP,ioos.station.NOAA.NDBC:BWSF1:1,2017-12-15T22:00:00Z,25.1780,-80.4380,1.5,23.81,1111122 